Regional Weather Roundup
Issued by NWS Little Rock, AR

Home | Current Version | Previous Version | Graphics & Text | Print | Product List | Glossary On
Versions: 1 2 3 4 5 6 7 8 9 10 11 12 13 14 15 16 17 18 19 20 21 22 23 24 25 26 27 28 29 30 31 32
000
ASUS44 KLZK 301105
RWRLZK

WEATHER ROUNDUP FOR ARKANSAS
NATIONAL WEATHER SERVICE LITTLE ROCK AR
600 AM CDT FRI SEP 30 2016

NOTE: "FAIR" INDICATES FEW OR NO CLOUDS BELOW 12,000 FEET WITH NO
SIGNIFICANT WEATHER AND/OR OBSTRUCTIONS TO VISIBILITY.

ARZ001-003-010-029-301200-
NORTHWEST ARKANSAS

CITY           SKY/WX    TMP DP  RH WIND       PRES   REMARKS
FAYETTEVILLE   CLEAR     45  45 100 CALM      30.21S
FORT SMITH     CLEAR     53  49  86 SW5       30.18S
HARRISON       CLEAR     53  48  83 W6        30.19S
BENTONVILLE    CLEAR     48  43  81 CALM      30.21S
ROGERS         CLEAR     48  46  93 CALM      30.21S
SILOAM SPGS    CLEAR     46  37  71 CALM      30.22S
HIGHFILL       CLEAR     49  47  93 N3        30.20F
SPRINGDALE     CLEAR     48  46  93 CALM      30.22
$$

ARZ004-005-016-301200-
NORTH CENTRAL ARKANSAS

CITY           SKY/WX    TMP DP  RH WIND       PRES   REMARKS
BATESVILLE     PTCLDY    54  48  82 W5        30.14S
FLIPPIN        CLEAR     55  46  71 CALM      30.15R
MTN HOME       CLEAR     54  50  86 N3        30.16S
$$

ARZ040-041-301200-
WEST CENTRAL ARKANSAS

CITY           SKY/WX    TMP DP  RH WIND       PRES   REMARKS
MENA           CLEAR     50  50 100 CALM      30.18S
MOUNT IDA      CLEAR     50  48  93 CALM      30.15R
$$

ARZ009-017-025-026-028-301200-
NORTHEAST ARKANSAS

CITY           SKY/WX    TMP DP  RH WIND       PRES   REMARKS
CORNING          N/A     54  54 100 NW5       30.11F
JONESBORO      CLOUDY    62  56  80 N5        30.11S
NEWPORT        MOCLDY    57  54  89 NW7       30.13R
WALNUT RIDGE   MOCLDY    57  52  82 NW8       30.11F
BLYTHEVILLE    CLOUDY    61  57  87 N5        30.10S
$$

ARZ022-023-033-042-044-301200-
CENTRAL ARKANSAS

CITY           SKY/WX    TMP DP  RH WIND       PRES   REMARKS
LITTLE ROCK    PTCLDY    63  50  62 N7        30.14R
JACKSONVILLE   CLEAR     57  51  80 W5        30.13R
SEARCY         CLEAR     56  53  90 NW3       30.14R
HOT SPRINGS    CLEAR     55  53  93 W3        30.15S
RUSSELLVILLE   CLEAR     52  50  93 CALM      30.15S
$$

ARZ036-301200-
EAST ARKANSAS

CITY           SKY/WX    TMP DP  RH WIND       PRES   REMARKS
WEST MEMPHIS   MOCLDY    58  56  93 CALM      30.09S
$$

ARZ050-053-066-070-073-301200-
SOUTHWEST ARKANSAS

CITY           SKY/WX    TMP DP  RH WIND       PRES   REMARKS
ARKADELPHIA    FAIR      51  50  96 CALM      30.16R
TEXARKANA      CLEAR     55  51  86 CALM      30.16R
EL DORADO      CLEAR     53  51  93 CALM      30.15R
DE QUEEN       CLEAR     49  49 100 CALM      30.15S FOG
$$

ARZ056-057-069-301200-
SOUTHEAST ARKANSAS

CITY           SKY/WX    TMP DP  RH WIND       PRES   REMARKS
PINE BLUFF     CLEAR     54  52  93 CALM      30.13R
STUTTGART      CLEAR     55  46  71 NW9       30.13R
MONTICELLO     CLEAR     54  52  93 W3        30.13R

$$






USA.gov is the U.S. government's official web portal to all federal, state and local government web resources and services.